Simultaneous Nadir Overpasses (SNOs) Predictions

Prediction of SNOs between GOES-15 and LANDSAT-8 Satellite Orbit:

Table of predicted SNOs for the next 14.0 days since TLE Epoch: 8/29/2025
Index Date Time (GOES-15) GOES-15 Lat,Lon LANDSAT-8 Lat,Lon Distance(km) Time Diff (sec)
1 08/30/2025 05:50:24 0.36, 61.49 -0.44, 65.11 411.74 80
2 08/30/2025 18:14:27 -0.40, 61.58 -0.76, 59.94 187.54 80
3 09/01/2025 17:59:37 -0.40, 61.56 -0.13, 62.89 151.00 80
4 09/02/2025 06:23:32 0.44, 61.45 1.22, 57.73 423.14 80
5 09/03/2025 17:47:27 -0.39, 61.54 0.51, 65.84 489.20 80
6 09/04/2025 06:11:22 0.44, 61.43 0.57, 60.68 85.02 80
7 09/06/2025 05:56:31 0.42, 61.41 -0.03, 63.64 252.91 80
8 09/06/2025 18:20:35 -0.47, 61.51 -1.09, 58.45 346.42 80
9 09/08/2025 18:08:24 -0.46, 61.49 -0.47, 61.41 8.75 80
10 09/10/2025 17:53:33 -0.45, 61.48 0.16, 64.37 328.45 80
11 09/11/2025 06:17:28 0.49, 61.38 0.98, 59.22 246.61 80
